THOR ABLESTAR DEB

Satellite information

Favourite Embed

Satellite Type and Status

DEBRISIN ORBIT

Key statistics

Satellite THOR ABLESTAR DEB at a glance.

Uptime

23490

Days in orbit

Revolutions

≈ 13.9

Per day

Orbit

LEO

Low Earth Orbit

Inclination

66.8

Latest

Satellite identification and parameters

Extended collection of information and parameters for THOR ABLESTAR DEB.

Object identification

Identified? True

Debris? True

Object name: THOR ABLESTAR DEB

International designator: 1961-015NG

Object number (NORAD): 48828

Object ID (CCSDS): 48828

Country: UNITED STATES OF AMERICA (US)

Current information (Y/N): Y

RCS size: SMALL

Orbital parameters

Period: 103.303 minutes

Inclination: 66.7633 deg

SMA: 7292.938 km

Apoapsis: 962.609 km

Periapsis: 866.996 km

RAAN: 352.5723 deg

Eccentricy: 0.00655516

Argument of periapsis: 293.277 deg

Mean anomaly: 226.1333 deg

Mean motion: 13.9395576 rev/day

Mean motion (dot): 0.00000173 rev/day2

B* drag term: 0.00018634492 1/REarth

Two-line elements (TLE)

Creation date: Oct. 19, 2025, 2:20 a.m.

Reference frame: TEME

Reference center: EARTH

Epoch: Oct. 18, 2025, 3:03 p.m. UTC

TLE line 0: 0 THOR ABLESTAR DEB

TLE line 1: 1 48828U 61015NG 25291.62762491 .00000173 00000-0 18634-3 0 9995

TLE line 2: 2 48828 66.7633 352.5723 0065552 293.2770 226.1333 13.93955760605765

Live tracking on map

Real-time ground track for satellite THOR ABLESTAR DEB.

In-orbit conjunctions

A list of the most updated potential collisions computed for object THOR ABLESTAR DEB.

Target Orbit TCA Probability of collision Miss distance Type
FENGYUN 1C DEB SSO 2025-08-29 00:18:02 0.0001152 83.0 (m) DEBRIS
FENGYUN 1C DEB SSO 2025-03-15 13:38:14 0.0001067277 164.0 (m) DEBRIS
SL-3 R/B LEO 2024-08-12 14:52:55 0.0002082002 392.0 (m) ROCKET BODY

Associated space launch

THOR ABLESTAR DEB was lifted into orbit during the mission ‘Thor DM-21 Ablestar | Transit 4A & Injun-1 & Solrad 3’, on board a Thor DM-21 Ablestar space rocket.

The launch took place on June 29, 1961, 4:23 a.m. from Space Launch Complex 17B.

For more information about the launch, click the button.

Launch to space Thor DM-21 Ablestar | Transit 4A & Injun-1 & Solrad 3
Thor DM-21 Ablestar | Transit 4A & Injun-1 & Solrad 3

Agency: N/A

Status: Launch Successful

Launch date: June 29, 1961, 4:23 a.m. UTC

Rocket: Thor DM-21 Ablestar

Launch pad: Space Launch Complex 17B

Location: Cape Canaveral SFS, FL, USA

...

Latest news about this satellite

There are no fresh news available about this satellite. Check back as we update our databases every day.


Newsletter sign-up

Weekly statistics, charts and insights to help you stay on top of the space industry.